TimeMDT,TemperatureF,Dew PointF,Humidity,Sea Level PressureIn,VisibilityMPH,Wind Direction,Wind SpeedMPH,Gust SpeedMPH,PrecipitationIn,Events,Conditions,WindDirDegrees,DateUTC
12:18 AM,33.8,32.0,93,30.14,9.0,East,6.9,-,0.01,,Overcast,80,2013-10-18 06:18:00
12:38 AM,33.8,32.0,93,30.15,4.0,ENE,6.9,-,0.01,Snow,Light Snow,70,2013-10-18 06:38:00
12:48 AM,33.8,30.2,87,30.14,2.0,ENE,5.8,-,0.01,Snow,Light Snow,60,2013-10-18 06:48:00
12:53 AM,34.0,32.0,92,30.18,2.5,ENE,5.8,-,0.01,Snow,Light Snow,60,2013-10-18 06:53:00
1:01 AM,33.8,32.0,93,30.15,4.0,NE,3.5,-,0.00,Snow,Light Snow,50,2013-10-18 07:01:00
1:15 AM,33.8,32.0,93,30.15,5.0,Calm,Calm,-,0.01,Snow,Light Snow,0,2013-10-18 07:15:00
1:41 AM,33.8,33.8,100,30.15,3.0,Calm,Calm,-,0.01,Snow,Light Snow,0,2013-10-18 07:41:00
1:51 AM,33.8,33.8,100,30.14,3.0,NE,3.5,-,0.01,Snow,Light Snow,50,2013-10-18 07:51:00
1:53 AM,34.0,32.0,92,30.18,3.0,NE,5.8,-,0.01,Snow,Light Snow,50,2013-10-18 07:53:00
1:57 AM,33.8,30.2,87,30.14,2.5,ENE,5.8,-,0.00,Snow,Light Snow,60,2013-10-18 07:57:00
2:22 AM,33.8,32.0,93,30.14,4.0,ENE,6.9,-,0.01,Snow,Light Snow,60,2013-10-18 08:22:00
2:53 AM,33.1,32.0,96,30.17,6.0,ENE,3.5,-,0.01,Snow,Light Snow,60,2013-10-18 08:53:00
3:53 AM,34.0,32.0,92,30.16,10.0,South,8.1,-,0.00,,Overcast,170,2013-10-18 09:53:00
4:07 AM,33.8,32.0,93,30.13,10.0,Variable,4.6,-,N/A,,Overcast,0,2013-10-18 10:07:00
4:53 AM,34.0,33.1,96,30.18,10.0,Calm,Calm,-,N/A,,Overcast,0,2013-10-18 10:53:00
5:53 AM,34.0,32.0,92,30.18,10.0,WNW,3.5,-,N/A,,Overcast,300,2013-10-18 11:53:00
6:05 AM,33.8,32.0,93,30.14,10.0,West,4.6,-,N/A,,Overcast,270,2013-10-18 12:05:00
6:53 AM,34.0,32.0,92,30.19,10.0,WNW,5.8,-,N/A,,Overcast,290,2013-10-18 12:53:00
7:53 AM,35.1,33.1,92,30.20,10.0,WNW,4.6,-,N/A,,Overcast,300,2013-10-18 13:53:00
8:53 AM,37.0,34.0,89,30.22,10.0,WNW,9.2,-,N/A,,Partly Cloudy,290,2013-10-18 14:53:00
9:53 AM,39.9,35.1,83,30.20,10.0,WNW,8.1,-,N/A,,Clear,290,2013-10-18 15:53:00
10:53 AM,45.0,36.0,71,30.18,10.0,WNW,13.8,-,N/A,,Partly Cloudy,290,2013-10-18 16:53:00
11:53 AM,46.9,33.1,59,30.18,10.0,NW,15.0,21.9,N/A,,Mostly Cloudy,320,2013-10-18 17:53:00
12:53 PM,45.0,32.0,60,30.17,10.0,NW,16.1,-,N/A,,Mostly Cloudy,310,2013-10-18 18:53:00
1:53 PM,46.9,28.0,48,30.14,10.0,NW,20.7,29.9,N/A,,Mostly Cloudy,310,2013-10-18 19:53:00
2:53 PM,46.9,28.0,48,30.14,10.0,WNW,16.1,-,N/A,,Mostly Cloudy,300,2013-10-18 20:53:00
3:53 PM,48.0,26.1,42,30.13,10.0,NW,21.9,29.9,N/A,,Overcast,320,2013-10-18 21:53:00
4:53 PM,46.0,25.0,44,30.14,10.0,NNW,16.1,26.5,N/A,,Mostly Cloudy,330,2013-10-18 22:53:00
5:53 PM,43.0,21.9,43,30.15,10.0,NW,12.7,-,N/A,,Scattered Clouds,310,2013-10-18 23:53:00
6:53 PM,39.0,24.1,55,30.17,10.0,WNW,6.9,-,N/A,,Clear,290,2013-10-19 00:53:00
7:53 PM,37.0,24.1,59,30.17,10.0,West,6.9,-,N/A,,Clear,280,2013-10-19 01:53:00
8:53 PM,35.1,25.0,67,30.17,10.0,West,6.9,-,N/A,,Clear,260,2013-10-19 02:53:00
9:53 PM,32.0,25.0,75,30.16,10.0,WSW,5.8,-,N/A,,Clear,250,2013-10-19 03:53:00
10:53 PM,30.0,24.1,79,30.15,10.0,WSW,9.2,-,N/A,,Clear,250,2013-10-19 04:53:00
11:53 PM,30.0,24.1,79,30.14,10.0,West,6.9,-,N/A,,Clear,260,2013-10-19 05:53:00